Stations météo

réclame
Mon MeteoGroup
Geneve-Cointrin, Suisse (6700): Température de l'air & dewpoint: 19.08.2019 18:00:00 - 25.08.2019 18:00:00 (CEST)Geneve-Cointrin, Suisse (6700): Température de l'air 5cm: 19.08.2019 18:00:00 - 25.08.2019 18:00:00 (CEST)Geneve-Cointrin, Suisse (6700): Vitesse du vent & gusts: 19.08.2019 18:00:00 - 25.08.2019 18:00:00 (CEST)Geneve-Cointrin, Suisse (6700): Direction du vent: 19.08.2019 18:00:00 - 25.08.2019 18:00:00 (CEST)Geneve-Cointrin, Suisse (6700): reduced air pressure: 19.08.2019 18:00:00 - 25.08.2019 18:00:00 (CEST)Geneve-Cointrin, Suisse (6700): visibility: 19.08.2019 18:00:00 - 25.08.2019 18:00:00 (CEST)Geneve-Cointrin, Suisse (6700): Ensoleillement: 19.08.2019 18:00:00 - 25.08.2019 18:00:00 (CEST)Geneve-Cointrin, Suisse (6700): Quantités de précipitations: 19.08.2019 18:00:00 - 25.08.2019 18:00:00 (CEST)
Date & Time tt [°C] td [°C] tt 5cm [°C] ff [km/h] ff [knt] fx [km/h] fx [knt] dd ppp [hPa] vv [km] sd [min] rr [mm]
25.08.2019 18:00:00 27,8 11,3 30,2 10 5 17 9 NNE 1016,4 - 60 0,0
25.08.2019 17:00:00 27,3 14,2 30,8 10 5 19 10 E 1016,5 35 60 0,0
25.08.2019 16:00:00 27,1 14,8 32,2 8 5 18 10 NE 1016,8 - 60 0,0
25.08.2019 15:00:00 26,7 15,2 31,4 8 5 17 9 E 1017,3 - 60 0,0
25.08.2019 14:00:00 25,4 14,6 31,0 9 5 19 10 E 1017,8 35 60 0,0
25.08.2019 13:00:00 24,5 14,7 31,1 3 1 15 8 SE 1018,5 - 60 0,0
25.08.2019 12:00:00 22,4 13,7 29,1 6 4 14 7 ENE 1019,3 - 60 0,0
25.08.2019 11:00:00 21,3 14,2 27,1 4 2 13 7 N 1020,0 25 60 0,0
25.08.2019 10:00:00 19,3 15,3 25,3 7 4 13 7 ENE 1020,1 - 60 0,0
25.08.2019 09:00:00 17,0 14,7 21,1 2 1 6 3 E 1020,3 - 60 0,0
25.08.2019 08:00:00 15,1 13,8 15,7 2 1 5 3 W 1020,3 14 18 0,0
25.08.2019 07:00:00 13,4 12,9 10,2 2 1 5 3 NW 1020,5 - 0 0,0
25.08.2019 06:00:00 13,8 13,1 10,8 2 1 8 4 W 1020,4 - 0 0,0
25.08.2019 05:00:00 14,1 13,4 11,2 3 2 5 3 NNE 1020,2 - 0 0,0
25.08.2019 04:00:00 14,8 14,2 11,7 1 1 4 2 N 1020,0 - 0 0,0
25.08.2019 03:00:00 15,2 14,5 11,8 2 1 6 3 NW 1019,6 - 0 0,0
25.08.2019 02:00:00 15,9 14,7 12,4 1 1 4 2 E 1019,6 - 0 0,0
25.08.2019 01:00:00 16,8 15,8 13,5 2 1 5 3 NE 1019,4 - 0 0,0
25.08.2019 00:00:00 17,4 15,8 14,0 2 1 7 4 N 1019,2 - 0 0,0
24.08.2019 23:00:00 18,7 15,7 14,9 2 1 5 3 NW 1018,8 25 0 0,0
24.08.2019 22:00:00 20,2 16,0 15,8 3 1 5 3 NE 1018,2 - 0 0,0
24.08.2019 21:00:00 21,5 15,3 17,7 4 2 10 6 N 1017,6 - 0 0,0
24.08.2019 20:00:00 23,1 16,1 21,3 7 4 14 7 NNE 1017,3 25 49 0,0
24.08.2019 19:00:00 25,4 16,6 26,9 6 3 14 8 N 1016,9 - 60 0,0
24.08.2019 18:00:00 26,6 17,2 29,5 7 4 18 10 E 1016,7 - 60 0,0
24.08.2019 17:00:00 27,6 14,9 32,5 4 2 14 8 WSW 1016,8 25 60 0,0
24.08.2019 16:00:00 26,4 14,9 31,2 8 5 18 10 E 1017,4 - 60 0,0
24.08.2019 15:00:00 25,9 15,9 30,9 6 3 19 11 ENE 1017,9 - 59 0,0
24.08.2019 14:00:00 24,5 16,2 30,2 5 3 21 12 WSW 1018,7 20 60 0,0
24.08.2019 13:00:00 23,0 16,5 29,1 6 3 15 8 E 1019,6 - 60 0,0
24.08.2019 12:00:00 21,5 15,8 28,3 4 2 14 8 ESE 1020,3 - 60 0,0
24.08.2019 11:00:00 21,2 15,6 26,8 3 2 10 5 ENE 1020,8 14 60 0,0
24.08.2019 10:00:00 18,4 14,9 24,1 4 2 8 5 E 1021,2 - 60 0,0
24.08.2019 09:00:00 16,8 14,4 19,8 2 1 7 4 E 1021,6 - 60 0,0
24.08.2019 08:00:00 13,9 12,6 14,1 1 0 5 3 NW 1022,1 13 19 0,0
24.08.2019 07:00:00 12,3 11,6 10,0 4 2 5 3 NW 1022,4 - 0 0,0
24.08.2019 06:00:00 12,8 11,9 10,6 3 1 7 4 W 1022,1 - 0 0,0
24.08.2019 05:00:00 13,0 12,3 10,8 6 3 7 4 W 1022,3 - 0 0,0
24.08.2019 04:00:00 13,1 12,2 11,2 4 2 5 3 WSW 1022,5 - 0 0,0
24.08.2019 03:00:00 13,8 12,3 11,1 3 1 5 3 WSW 1022,3 - 0 0,0
24.08.2019 02:00:00 14,6 13,2 11,7 4 2 6 3 SW 1022,1 - 0 0,0
24.08.2019 01:00:00 14,7 13,3 12,2 3 1 5 3 W 1022,3 - 0 0,0
24.08.2019 00:00:00 15,5 13,8 12,6 2 1 6 3 W 1022,1 - 0 0,0
23.08.2019 23:00:00 15,8 14,4 13,6 2 1 6 3 WSW 1022,2 12 0 0,0
23.08.2019 22:00:00 16,4 14,5 13,6 4 2 5 3 NW 1022,3 - 0 0,0
23.08.2019 21:00:00 18,0 15,1 15,0 2 1 11 6 N 1021,9 - 0 0,0
23.08.2019 20:00:00 20,1 14,9 19,1 8 4 14 8 NNE 1021,2 12 46 0,0
23.08.2019 19:00:00 21,1 14,8 23,1 8 4 21 11 NNE 1021,0 - 60 0,0
23.08.2019 18:00:00 21,0 14,4 24,8 11 6 26 14 NE 1021,3 - 60 0,0
23.08.2019 17:00:00 21,3 14,7 25,7 11 6 21 11 ENE 1021,5 12 21 0,0
23.08.2019 16:00:00 20,7 14,6 23,8 15 8 22 12 NE 1021,8 - 0 0,0
23.08.2019 15:00:00 20,5 14,7 23,8 13 7 22 12 NE 1022,2 - 0 0,0
23.08.2019 14:00:00 19,6 14,3 23,0 13 7 26 14 NE 1022,7 14 0 0,0
23.08.2019 13:00:00 19,3 14,5 21,6 19 11 29 16 NE 1023,2 - 0 0,0
23.08.2019 12:00:00 18,7 14,2 21,1 18 10 30 16 NE 1023,4 - 0 0,0
23.08.2019 11:00:00 18,2 14,2 20,0 16 9 26 14 ENE 1023,5 14 0 0,0
23.08.2019 10:00:00 17,6 13,6 17,9 15 8 25 14 NE 1023,9 - 0 0,0
23.08.2019 09:00:00 17,1 13,8 17,1 6 3 14 7 NNE 1024,0 - 0 0,0
23.08.2019 08:00:00 16,3 13,6 15,8 3 2 6 3 N 1023,8 18 0 0,0
23.08.2019 07:00:00 15,3 13,2 14,8 4 2 7 4 WNW 1024,0 - 0 0,0
23.08.2019 06:00:00 15,1 13,4 14,2 2 1 7 4 WNW 1023,9 - 0 0,0
23.08.2019 05:00:00 14,4 13,2 12,3 5 3 14 8 NW 1024,1 - 0 0,0
23.08.2019 04:00:00 15,2 13,5 11,9 4 2 14 7 N 1024,2 - 0 0,0
23.08.2019 03:00:00 15,6 14,0 13,1 7 4 17 9 N 1024,3 - 0 0,0
23.08.2019 02:00:00 17,6 14,8 15,2 10 5 19 10 NNE 1024,4 - 0 0,0
23.08.2019 01:00:00 16,1 14,5 13,4 5 3 9 5 N 1024,8 - 0 0,0
23.08.2019 00:00:00 17,5 14,7 14,0 7 4 13 7 NNE 1024,3 - 0 0,0
22.08.2019 23:00:00 17,2 14,7 14,5 7 4 11 6 N 1024,3 18 0 0,0
22.08.2019 22:00:00 18,2 15,7 15,2 6 4 12 7 N 1024,0 - 0 0,0
22.08.2019 21:00:00 20,2 15,8 18,0 8 4 14 8 NNE 1023,1 - 0 0,0
22.08.2019 20:00:00 21,6 15,5 21,2 11 6 16 8 NE 1022,2 23 46 0,0
22.08.2019 19:00:00 22,9 15,7 25,3 9 5 20 11 NE 1021,7 - 60 0,0
22.08.2019 18:00:00 23,0 15,4 26,8 12 6 22 12 NE 1022,0 - 60 0,0
22.08.2019 17:00:00 22,4 14,5 27,6 11 6 19 11 ENE 1022,1 25 60 0,0
22.08.2019 16:00:00 22,0 14,6 29,2 9 5 22 12 N 1022,6 - 52 0,0
22.08.2019 15:00:00 20,9 14,0 26,8 11 6 19 10 NE 1023,1 - 11 0,0
22.08.2019 14:00:00 20,2 13,7 24,2 7 4 20 11 NNE 1023,2 25 0 0,0
22.08.2019 13:00:00 19,7 13,2 23,0 16 8 26 14 ENE 1023,5 - 19 0,0
22.08.2019 12:00:00 19,6 13,8 25,4 14 8 23 13 ENE 1023,4 - 35 0,0
22.08.2019 11:00:00 18,7 13,7 21,6 11 6 21 11 NE 1023,6 25 0 0,0
22.08.2019 10:00:00 17,9 13,4 19,7 15 8 22 12 NE 1023,3 - 0 0,0
22.08.2019 09:00:00 17,3 13,2 17,9 13 7 19 10 NE 1023,0 - 0 0,0
22.08.2019 08:00:00 16,9 12,9 16,4 10 5 23 12 NE 1023,0 20 0 0,0
22.08.2019 07:00:00 16,7 12,8 15,8 13 7 21 11 NE 1022,7 - 0 0,0
22.08.2019 06:00:00 16,5 12,9 15,2 5 3 13 7 N 1022,7 - 0 0,0
22.08.2019 05:00:00 15,7 12,6 14,6 4 2 8 4 N 1022,7 - 0 0,0
22.08.2019 04:00:00 15,0 12,1 13,5 2 1 4 2 SW 1023,0 - 0 0,0
22.08.2019 03:00:00 14,0 11,6 10,8 1 1 11 6 NNW 1023,3 - 0 0,0
22.08.2019 02:00:00 14,4 11,4 11,6 4 2 11 6 N 1023,6 - 0 0,0
22.08.2019 01:00:00 15,3 11,7 12,6 5 3 12 6 N 1023,8 - 0 0,0
22.08.2019 00:00:00 17,3 11,8 15,9 8 4 18 10 N 1023,4 - 0 0,0
21.08.2019 23:00:00 18,0 11,7 16,6 8 4 22 12 NNE 1023,1 60 0 0,0
21.08.2019 22:00:00 18,6 11,5 17,4 12 7 26 14 NNE 1023,1 - 0 0,0
21.08.2019 21:00:00 19,1 11,6 18,2 13 7 39 21 NNE 1022,8 - 0 0,0
21.08.2019 20:00:00 19,8 12,5 19,5 16 9 37 20 NNE 1022,2 60 8 0,0
21.08.2019 19:00:00 20,0 12,6 19,9 20 11 39 21 NNE 1022,3 - 0 0,0
21.08.2019 18:00:00 20,2 12,7 20,3 18 10 34 18 NNE 1022,4 - 0 0,0
21.08.2019 17:00:00 20,1 13,0 21,0 23 12 40 22 NE 1022,5 60 3 0,0
21.08.2019 16:00:00 20,0 12,5 23,4 28 15 46 25 NE 1022,7 - 54 0,0
21.08.2019 15:00:00 19,6 12,1 24,4 23 13 41 22 NE 1023,0 - 56 0,0
21.08.2019 14:00:00 19,5 12,8 23,9 22 12 40 22 NNE 1023,5 60 24 0,0
21.08.2019 13:00:00 17,9 11,8 21,1 24 13 40 21 NE 1024,3 - 5 0,0
21.08.2019 12:00:00 16,5 11,5 17,8 24 13 44 24 NE 1025,0 - 0 0,0
21.08.2019 11:00:00 16,4 11,4 18,0 22 12 39 21 NE 1024,9 60 11 0,0
21.08.2019 10:00:00 15,2 10,9 15,5 23 12 41 22 NE 1025,2 - 0 0,0
21.08.2019 09:00:00 14,8 11,1 13,8 16 9 35 19 NNE 1025,4 - 1 0,0
21.08.2019 08:00:00 14,5 11,2 13,3 18 10 39 21 NNE 1025,8 60 0 0,0
21.08.2019 07:00:00 13,9 11,3 12,2 24 13 39 21 NNE 1025,7 - 0 0,0
21.08.2019 06:00:00 13,9 11,1 11,8 23 12 39 21 NE 1025,6 - 0 0,0
21.08.2019 05:00:00 13,9 11,2 11,8 21 12 39 21 NE 1025,8 - 0 0,0
21.08.2019 04:00:00 14,2 11,8 12,2 15 8 33 18 NNE 1025,8 - 0 0,0
21.08.2019 03:00:00 11,5 10,2 10,0 2 1 12 6 NNW 1026,3 - 0 0,0
21.08.2019 02:00:00 11,4 10,7 9,0 7 4 13 7 N 1026,8 - 0 0,0
21.08.2019 01:00:00 11,1 10,4 9,4 4 2 13 7 NNW 1027,1 - 0 0,0
21.08.2019 00:00:00 12,5 10,5 9,5 8 4 15 8 N 1027,1 - 0 0,0
20.08.2019 23:00:00 12,8 10,9 10,3 4 2 10 6 NNE 1027,2 60 0 0,0
20.08.2019 22:00:00 12,9 11,8 11,2 6 3 20 11 N 1027,0 - 0 0,0
20.08.2019 21:00:00 14,1 12,4 13,0 10 5 22 12 N 1026,4 - 0 0,0
20.08.2019 20:00:00 14,5 13,1 13,9 15 8 26 14 NE 1026,1 25 0 0,1
20.08.2019 19:00:00 14,8 13,7 14,5 7 4 13 7 NE 1026,6 - 0 0,6
20.08.2019 18:00:00 15,1 14,2 14,9 4 2 9 5 NNE 1025,9 - 0 2,3
20.08.2019 17:00:00 15,1 14,1 15,0 5 3 10 6 E 1025,6 9 0 1,8
20.08.2019 16:00:00 15,4 14,4 15,5 3 2 19 11 SE 1024,9 - 0 1,8
20.08.2019 15:00:00 15,9 14,1 15,6 6 4 20 11 ENE 1024,1 - 0 1,4
20.08.2019 14:00:00 17,0 16,3 16,7 3 2 25 14 S 1023,2 9 0 1,1
20.08.2019 13:00:00 17,0 16,3 17,0 3 2 20 11 N 1022,7 - 0 1,9
20.08.2019 12:00:00 16,5 15,7 16,5 5 3 11 6 NE 1022,2 - 0 1,8
20.08.2019 11:00:00 16,5 15,5 16,6 6 3 10 5 NNE 1022,0 9 0 1,5
20.08.2019 10:00:00 16,3 15,5 16,3 4 2 10 6 WNW 1021,9 - 0 2,4
20.08.2019 09:00:00 16,3 15,2 16,0 1 1 8 4 NNE 1021,3 - 0 1,9
20.08.2019 08:00:00 16,3 15,4 15,6 3 2 8 5 NW 1021,0 10 0 1,0
20.08.2019 07:00:00 16,5 15,4 15,9 4 2 8 4 WNW 1020,4 - 0 1,0
20.08.2019 06:00:00 17,0 15,9 16,3 3 2 6 4 WSW 1019,7 - 0 0,0
20.08.2019 05:00:00 16,7 16,0 16,1 4 2 10 5 NE 1019,9 - 0 0,0
20.08.2019 04:00:00 16,9 16,1 16,5 5 3 16 9 NW 1020,6 - 0 0,0
20.08.2019 03:00:00 16,9 15,7 16,3 11 6 19 10 ENE 1020,2 - 0 0,0
20.08.2019 02:00:00 17,6 16,7 17,1 6 3 20 11 N 1020,6 - 0 0,4
20.08.2019 01:00:00 18,1 17,0 17,5 11 6 16 9 ENE 1020,3 - 0 0,3
20.08.2019 00:00:00 18,2 16,6 17,9 3 1 6 3 N 1020,4 - 0 0,0
19.08.2019 23:00:00 18,4 16,1 18,0 3 2 9 5 SE 1020,2 20 0 0,0
19.08.2019 22:00:00 19,0 16,2 18,4 6 3 22 12 WSW 1019,9 - 0 0,0
19.08.2019 21:00:00 19,2 16,9 18,6 8 4 17 9 S 1019,1 - 0 0,0
19.08.2019 20:00:00 19,5 17,2 19,0 5 3 24 13 W 1018,6 25 0 0,2
19.08.2019 19:00:00 20,4 16,9 19,8 21 11 34 18 SSW 1018,1 - 0 0,0
19.08.2019 18:00:00 22,9 16,9 25,9 19 11 31 17 SSW 1017,1 - 11 0,0

tt = Température de l'air
td = dewpoint
tt 5cm = Température de l'air 5cm
ff = Vitesse du vent
fx = gusts
dd = Direction du vent
ppp = reduced air pressure
vv = visibility
sd = Ensoleillement
rr = Quantités de précipitations

stations d'obs. à proximité